Wind_Speed
21 21 21 22 22 23 22 22 21 20 22 23 23 22 21 21 21 20 19 18 16 14 14 14 14 14 13 14 14 13 12 11 12 12 13 13 13 13 13 13 13 13 14 13
21 21 21 22 22 23 22 22 21 21 22 23 23 22 21 21 21 20 20 19 17 16 15 15 16 16 15 15 15 15 14 14 14 14 14 15 14 14 13 13 13 14 14 14
21 21 21 22 23 23 22 21 20 20 21 23 23 22 21 21 21 20 20 19 19 17 16 16 17 17 17 17 17 16 16 15 15 15 15 15 15 14 14 14 14 14 14 15
22 21 22 22 22 23 22 21 21 21 22 23 23 24 21 21 20 20 19 18 18 17 17 17 16 17 17 17 17 17 17 16 16 16 15 15 15 15 15 15 15 15 14 15
21 21 22 22 22 23 22 21 22 22 23 23 23 24 21 21 20 19 19 19 18 18 17 18 17 18 18 18 18 18 17 17 16 16 15 15 15 16 16 16 16 16 16 16
22 22 22 21 21 23 22 22 23 24 24 24 22 23 20 19 18 19 19 19 19 18 18 18 18 18 18 18 17 17 17 17 17 16 16 16 16 16 17 17 17 17 17 17
23 23 22 22 22 22 22 22 23 24 24 23 21 22 19 18 18 18 19 19 19 19 19 19 18 18 18 18 18 17 17 17 17 17 17 17 18 18 17 18 18 18 18 18
22 22 22 21 21 21 21 22 23 24 24 22 22 22 20 18 18 18 18 18 18 18 18 18 18 19 18 18 18 18 18 18 19 19 19 19 19 18 18 18 19 19 19 19
22 22 22 21 20 21 22 23 23 25 25 24 23 22 20 19 17 17 17 17 17 18 18 19 19 19 18 18 18 19 19 20 19 19 19 19 19 18 18 18 19 20 20 20
23 22 22 21 21 21 22 22 23 25 25 25 24 22 20 18 18 17 17 17 18 19 19 19 19 20 19 19 19 19 19 20 20 20 19 19 19 18 19 20 20 20 21 21
24 24 23 23 22 22 23 24 25 25 26 26 24 22 20 19 18 19 18 18 19 19 19 19 20 20 20 20 20 20 20 20 20 20 19 19 19 19 20 21 21 20 21 21
25 26 25 24 23 23 24 25 25 25 26 25 25 22 21 20 19 19 20 20 20 20 21 21 22 22 22 21 21 21 20 20 19 19 19 20 20 20 20 20 20 20 20 20
26 27 26 25 25 25 25 25 25 26 26 26 25 23 21 20 20 20 20 21 21 22 22 23 22 23 23 23 22 21 21 20 20 20 20 20 20 20 20 20 20 19 20 20
26 26 26 25 25 25 25 25 25 26 27 26 25 23 22 20 20 20 21 21 22 23 23 24 24 23 23 23 22 21 21 21 21 21 21 20 21 20 20 20 20 19 20 20
26 25 25 24 25 25 25 25 25 26 26 26 25 24 22 21 21 21 21 21 22 23 24 24 25 24 23 23 22 22 21 21 21 22 22 22 22 20 20 20 19 19 20 20
26 25 25 24 24 25 25 24 25 26 26 27 26 25 24 23 22 21 21 21 22 22 23 23 24 24 23 22 21 21 20 20 21 22 22 22 22 21 20 20 20 20 20 20
24 25 25 24 24 24 25 25 25 26 26 26 25 24 24 22 22 21 21 21 22 22 22 22 23 23 23 22 21 21 20 21 22 21 21 21 21 20 20 20 20 20 19 20
23 24 24 24 24 26 24 24 25 25 25 25 24 23 23 23 23 23 23 23 23 22 23 23 23 23 22 21 21 21 21 22 22 21 22 22 21 20 21 21 20 20 20 20
23 23 24 24 25 26 25 24 24 24 25 24 24 23 23 23 23 23 23 23 24 23 23 23 24 24 23 22 22 22 23 23 22 22 21 22 20 20 21 21 21 21 21 20
22 22 23 23 23 24 23 23 23 23 23 23 23 23 23 23 23 23 23 23 22 22 23 24 24 24 23 23 23 23 23 23 23 23 22 22 22 21 21 21 21 21 21 21
23 22 21 22 22 23 22 23 23 23 23 22 22 23 24 24 23 23 23 23 22 22 22 22 23 24 23 22 22 22 22 22 22 21 21 22 22 22 21 21 21 21 21 21
23 22 20 21 22 21 21 22 23 24 23 23 22 22 23 24 24 23 23 22 21 22 21 21 22 23 22 21 21 21 22 22 21 21 21 21 21 22 22 22 21 21 21 21
21 22 21 20 21 22 22 22 23 23 23 23 22 22 22 23 23 24 23 23 22 21 21 21 21 21 21 21 21 22 22 22 21 20 21 21 21 21 22 22 22 22 22 22
20 21 22 21 20 21 22 22 22 23 23 22 22 22 22 22 22 23 23 23 23 22 21 20 20 21 21 22 22 21 22 21 21 21 21 21 21 21 21 21 22 22 22 21
20 21 22 22 21 22 22 23 22 22 23 23 23 22 22 23 23 23 23 23 23 23 22 21 20 21 22 22 22 22 21 21 21 20 21 21 20 20 20 20 21 22 22 21
21 21 22 22 22 22 22 23 23 22 22 23 23 22 22 22 21 22 22 23 23 23 22 22 21 22 22 22 21 21 20 20 20 20 21 20 20 20 20 20 21 21 21 22
Wind_Direction
245 247 249 252 253 255 256 256 258 258 258 261 262 264 265 265 264 268 270 269 267 268 265 264 269 272 278 284 287 289 288 288 289 290 288 287 284 285 284 286 279 274 273 274
245 247 249 252 254 255 257 258 259 259 259 262 263 264 264 262 263 266 267 266 262 261 263 263 264 266 271 276 280 285 284 285 287 290 290 286 285 286 285 283 282 278 273 274
245 247 249 252 255 257 258 259 261 263 261 263 265 263 263 262 263 264 264 263 260 259 260 260 262 264 267 272 277 280 282 284 288 289 289 288 287 285 284 283 282 280 277 274
246 246 248 251 255 257 257 260 262 263 264 265 266 265 263 262 263 262 262 262 261 261 259 259 262 263 267 272 276 279 278 281 286 286 284 282 283 285 284 283 281 280 279 276
244 246 249 250 251 254 256 259 261 262 263 266 268 270 268 264 264 261 260 260 259 261 261 260 260 262 265 271 273 275 273 278 281 282 283 282 282 284 284 283 282 280 277 276
243 246 249 250 251 253 254 257 260 261 264 267 270 273 268 266 268 264 261 260 259 260 260 260 261 261 263 267 270 271 274 277 279 281 282 282 281 282 283 283 282 281 279 276
242 244 248 250 250 251 252 255 259 262 265 269 270 270 270 268 267 264 261 260 259 260 260 260 261 263 262 264 266 269 273 276 279 280 280 281 281 281 282 282 281 280 279 277
244 246 247 250 251 253 254 257 261 266 269 272 269 269 269 269 266 263 264 262 260 260 260 260 260 263 263 263 263 267 271 277 279 278 278 279 280 282 283 283 281 280 278 276
245 247 247 250 252 254 255 256 260 265 268 271 269 268 267 266 264 263 263 262 260 260 261 261 263 264 263 262 264 268 271 274 276 276 277 278 279 281 283 284 284 281 279 277
247 249 248 249 251 252 255 257 259 263 267 270 269 267 269 267 264 265 261 261 259 260 261 263 265 263 262 264 267 268 271 273 273 274 275 277 278 280 283 285 286 283 280 279
248 250 251 250 250 253 255 256 258 262 265 269 270 269 271 268 263 262 261 259 257 257 261 263 263 263 263 265 266 267 271 274 274 272 273 275 277 281 282 284 284 280 280 279
251 252 251 252 252 253 256 258 259 260 264 266 268 271 272 270 264 264 262 258 257 258 259 260 261 261 263 265 267 266 270 274 274 272 272 274 278 281 282 283 283 280 279 277
252 252 251 250 250 251 254 257 259 259 262 265 267 271 271 269 267 265 263 261 260 259 259 260 261 260 261 264 265 265 268 270 271 272 273 275 279 281 281 280 282 280 279 277
253 252 252 253 254 255 256 257 257 258 262 264 267 269 270 269 269 267 265 263 261 260 261 262 263 263 263 263 263 265 267 269 270 272 274 276 279 280 279 277 278 279 280 278
251 252 252 252 253 256 257 256 256 258 261 264 267 270 271 269 268 267 266 264 262 259 261 262 263 264 263 262 264 266 266 267 270 271 273 276 278 278 278 277 277 279 280 279
251 252 253 252 252 254 257 257 258 259 260 261 265 267 268 268 265 263 264 264 264 264 262 260 261 263 262 262 264 268 265 267 271 271 271 273 275 276 276 275 278 281 281 280
251 251 251 251 252 254 256 257 258 260 261 262 265 265 265 267 264 262 262 263 266 266 263 262 263 263 261 261 263 264 267 267 270 271 271 273 274 275 276 275 276 280 281 280
252 252 253 253 253 253 257 257 258 259 261 263 263 264 265 266 266 264 263 265 266 267 264 263 261 263 262 262 263 264 265 266 269 271 272 274 274 276 277 275 277 279 281 280
252 253 253 255 254 254 254 255 257 258 259 262 262 264 265 265 265 265 264 266 266 265 263 262 260 262 261 261 263 264 263 264 268 270 272 274 273 275 276 275 276 278 281 281
251 253 255 254 254 253 253 254 256 259 261 263 265 263 263 265 264 265 265 265 265 264 263 262 261 262 261 261 261 263 263 265 267 270 273 273 273 275 275 274 274 276 278 281
251 252 254 254 255 256 255 255 256 259 261 263 265 263 265 266 265 266 266 266 264 264 262 260 260 260 261 259 260 262 263 265 268 271 273 274 273 275 275 274 274 274 276 278
252 251 249 252 253 255 254 255 256 257 260 262 265 265 266 267 265 265 265 266 264 262 259 258 259 259 260 259 261 261 262 266 269 270 273 276 274 274 274 274 273 273 275 278
251 248 249 253 254 256 258 257 257 258 260 262 263 265 267 267 265 264 265 266 263 260 259 259 259 260 261 260 262 261 260 262 266 269 272 275 275 274 272 272 273 271 272 275
251 250 250 252 255 257 258 259 259 260 261 261 262 264 267 268 264 263 266 267 265 263 261 261 260 261 261 262 263 261 260 262 266 268 271 274 274 274 273 272 271 272 273 273
253 252 252 252 255 257 257 258 261 264 264 263 263 266 266 267 266 265 265 265 266 264 265 263 261 261 262 264 263 260 259 261 263 267 275 278 275 273 273 273 272 272 272 272
254 254 256 255 255 257 257 258 260 262 265 265 265 267 266 266 265 264 263 262 263 263 262 261 261 260 261 263 262 258 257 260 263 268 273 275 276 273 271 273 273 273 274 273
Height
5834 5836 5837 5839 5840 5841 5842 5844 5845 5846 5846 5846 5847 5848 5849 5848 5849 5850 5851 5851 5851 5851 5851 5852 5852 5853 5853 5854 5854 5854 5853 5853 5853 5852 5852 5851 5851 5850 5850 5849 5849 5849 5849 5849
5830 5832 5834 5834 5835 5837 5838 5839 5841 5842 5842 5841 5842 5842 5844 5844 5844 5845 5846 5846 5846 5847 5847 5848 5848 5849 5850 5850 5850 5850 5850 5850 5850 5849 5848 5848 5847 5847 5847 5846 5846 5845 5845 5845
5826 5829 5829 5830 5831 5833 5834 5835 5837 5837 5837 5836 5837 5838 5839 5840 5840 5841 5841 5841 5842 5842 5843 5843 5844 5845 5845 5846 5846 5846 5846 5846 5846 5845 5845 5844 5844 5844 5843 5843 5842 5842 5841 5841
5821 5823 5825 5826 5827 5828 5830 5831 5831 5832 5832 5832 5832 5832 5835 5835 5835 5836 5837 5837 5838 5838 5838 5839 5840 5840 5841 5842 5842 5842 5842 5842 5842 5842 5841 5841 5841 5840 5840 5839 5839 5839 5838 5837
5817 5819 5820 5821 5823 5824 5825 5826 5826 5826 5827 5827 5827 5827 5831 5830 5831 5832 5833 5833 5833 5834 5834 5835 5835 5836 5837 5837 5838 5838 5838 5838 5838 5838 5837 5837 5837 5836 5836 5835 5835 5834 5834 5833
5812 5813 5815 5817 5818 5819 5820 5821 5821 5821 5822 5823 5824 5823 5825 5826 5827 5827 5827 5828 5828 5829 5829 5830 5831 5832 5833 5833 5833 5834 5834 5834 5834 5834 5833 5833 5833 5832 5832 5831 5830 5829 5829 5828
5807 5808 5810 5811 5813 5814 5815 5816 5817 5816 5817 5818 5819 5818 5821 5822 5822 5822 5822 5823 5823 5824 5825 5826 5826 5827 5828 5828 5829 5829 5829 5829 5829 5829 5829 5828 5828 5827 5827 5826 5826 5825 5824 5824
5802 5804 5805 5806 5808 5809 5810 5812 5812 5812 5812 5813 5814 5813 5816 5816 5817 5817 5817 5818 5819 5819 5820 5821 5822 5822 5823 5824 5824 5824 5824 5824 5824 5824 5824 5823 5823 5822 5822 5821 5821 5820 5819 5819
5797 5799 5801 5802 5803 5804 5805 5805 5807 5807 5806 5807 5808 5809 5811 5811 5812 5812 5813 5813 5814 5815 5816 5817 5817 5818 5818 5818 5819 5819 5819 5819 5819 5819 5818 5818 5818 5817 5817 5816 5815 5814 5814 5813
5791 5793 5795 5797 5798 5798 5800 5800 5801 5801 5800 5801 5802 5803 5805 5806 5807 5808 5808 5809 5810 5810 5811 5812 5812 5813 5813 5813 5814 5814 5814 5814 5813 5813 5813 5813 5813 5812 5811 5810 5809 5809 5808 5808
5785 5787 5789 5791 5792 5793 5794 5795 5795 5795 5796 5796 5796 5800 5800 5801 5802 5803 5804 5804 5805 5806 5806 5807 5807 5807 5808 5808 5808 5808 5808 5808 5808 5808 5808 5807 5807 5806 5805 5804 5803 5803 5802 5802
5779 5781 5782 5785 5786 5787 5788 5789 5790 5791 5790 5790 5791 5796 5795 5795 5796 5797 5798 5799 5799 5800 5801 5801 5801 5801 5802 5802 5802 5802 5802 5802 5802 5802 5802 5802 5801 5800 5799 5798 5797 5796 5796 5796
5773 5775 5776 5778 5781 5782 5782 5783 5784 5785 5785 5785 5785 5790 5789 5790 5790 5791 5792 5793 5794 5794 5794 5795 5794 5795 5795 5796 5796 5796 5796 5796 5796 5796 5796 5796 5795 5794 5793 5792 5791 5791 5790 5790
5767 5768 5771 5773 5774 5775 5776 5777 5778 5778 5778 5779 5780 5782 5783 5784 5784 5785 5786 5787 5787 5788 5788 5788 5788 5788 5789 5789 5790 5789 5790 5790 5790 5790 5790 5790 5789 5788 5787 5786 5786 5785 5784 5784
5760 5762 5764 5766 5767 5769 5770 5771 5772 5773 5773 5774 5775 5776 5777 5778 5778 5779 5779 5780 5780 5781 5781 5781 5782 5782 5782 5783 5783 5783 5783 5784 5784 5784 5784 5784 5783 5782 5781 5780 5780 5779 5778 5778
5753 5755 5757 5759 5761 5762 5763 5765 5766 5767 5767 5768 5768 5770 5771 5771 5772 5772 5773 5773 5774 5775 5775 5774 5775 5775 5776 5776 5777 5777 5777 5778 5778 5778 5777 5777 5777 5776 5775 5775 5774 5773 5772 5771
5746 5749 5751 5753 5754 5755 5757 5759 5759 5760 5761 5762 5762 5764 5764 5765 5766 5766 5766 5767 5768 5768 5768 5769 5769 5769 5770 5770 5771 5771 5771 5772 5772 5771 5771 5771 5771 5770 5769 5769 5768 5767 5766 5765
5740 5742 5744 5746 5748 5749 5753 5752 5753 5753 5754 5755 5756 5757 5757 5758 5759 5760 5760 5761 5761 5762 5762 5763 5763 5763 5764 5764 5764 5765 5765 5765 5765 5765 5765 5765 5764 5764 5763 5763 5762 5761 5760 5759
5734 5735 5737 5739 5740 5742 5745 5745 5746 5747 5748 5749 5750 5750 5751 5751 5752 5753 5753 5754 5754 5755 5755 5756 5756 5757 5757 5758 5758 5758 5758 5759 5759 5759 5758 5758 5758 5757 5757 5756 5756 5755 5753 5752
5728 5729 5731 5732 5733 5735 5738 5739 5739 5741 5742 5743 5743 5744 5744 5745 5746 5747 5747 5747 5747 5748 5748 5749 5749 5750 5750 5751 5751 5751 5751 5752 5752 5752 5752 5751 5751 5750 5750 5750 5749 5748 5747 5746
5722 5723 5725 5726 5727 5729 5731 5732 5734 5736 5737 5737 5737 5737 5738 5738 5740 5740 5740 5740 5741 5741 5741 5742 5743 5743 5744 5744 5744 5744 5745 5745 5745 5745 5745 5744 5744 5743 5743 5742 5742 5741 5741 5740
5716 5718 5719 5720 5722 5726 5725 5726 5728 5729 5729 5730 5731 5731 5732 5732 5732 5733 5733 5734 5735 5735 5735 5736 5736 5737 5737 5737 5737 5737 5738 5738 5738 5738 5738 5737 5737 5736 5736 5735 5735 5734 5734 5733
5710 5713 5714 5716 5718 5718 5719 5720 5721 5722 5723 5724 5725 5725 5725 5726 5726 5727 5727 5728 5728 5729 5729 5730 5730 5730 5731 5731 5731 5731 5731 5731 5731 5731 5731 5730 5730 5729 5729 5728 5728 5727 5727 5727
5705 5706 5708 5709 5711 5712 5713 5714 5715 5716 5717 5717 5718 5718 5719 5719 5720 5720 5721 5721 5722 5722 5722 5723 5723 5724 5724 5724 5724 5724 5724 5725 5725 5725 5724 5724 5723 5723 5722 5721 5721 5721 5720 5720
5699 5700 5701 5703 5705 5706 5707 5708 5709 5709 5710 5711 5711 5712 5712 5712 5713 5713 5714 5715 5715 5715 5716 5716 5717 5718 5718 5718 5718 5718 5718 5718 5718 5718 5718 5718 5717 5716 5715 5715 5714 5714 5714 5714
5693 5694 5695 5697 5698 5699 5700 5701 5702 5703 5703 5704 5704 5705 5705 5705 5706 5706 5707 5707 5708 5708 5709 5710 5710 5711 5711 5711 5711 5712 5711 5712 5713 5713 5712 5712 5711 5710 5710 5709 5709 5708 5707 5707